Terug naar catalogus

STARLINK-5134

ActiefCommunicatieVLEO
NORAD 53976·PAYLOAD·🇺🇸 United States

Gelanceerd Oct 5, 2022 vanaf Vandenberg Space Force Base

Loading…

Volgende Passages (komende 24 uur)

TLE

VersSource: CelesTrak SupGP

Epoch: Sep 14, 2026, 20:41 UTC

1 53976C 22125N   26257.86229167  .00001336  00000+0  39508-4 0  2573
2 53976  53.1596  63.7938 0001066  78.1081 192.7768 15.34360867    19

Volg STARLINK-5134 in realtime met AllMySat

Download on the App Store